Regional Weather Roundup
Issued by NWS

Home | Current Version | Previous Version | Graphics & Text | Print | Product List | Glossary On
Versions: 1 2 3 4 5 6 7 8 9 10 11 12 13 14 15 16 17 18 19 20 21 22 23 24 25 26 27 28 29 30 31 32 33 34 35 36 37 38 39 40 41 42 43 44 45 46 47 48 49 50
000
ASUS43 KLMK 082002
RWRKY
KENTUCKY REGIONAL WEATHER ROUNDUP
NATIONAL WEATHER SERVICE LOUISVILLE KY
300 PM EST THU DEC 08 2016

NOTE "FAIR" INDICATES FEW OR NO CLOUDS BELOW 12,000 FEET
WITH NO SIGNIFICANT WEATHER AND/OR OBSTRUCTIONS TO VISIBILITY.

KYZ001>023-026-027-061>063-070>075-082100-
WESTERN AND SOUTH CENTRAL KENTUCKY

CITY           SKY/WX    TMP DP  RH WIND       PRES   REMARKS
PADUCAH        SUNNY     36  11  35 NW13      30.46F WCI  27
HENDERSON      NOT AVBL
OWENSBORO      NOT AVBL
HOPKINSVILLE   SUNNY     35  13  41 NW8       30.42S WCI  28
BOWLING GREEN  SUNNY     36  14  40 W14       30.41S WCI  27
GLASGOW        NOT AVBL
$$

KYZ024-025-028>034-038-045-046-053-082100-
NORTH CENTRAL KENTUCKY

CITY           SKY/WX    TMP DP  RH WIND       PRES   REMARKS
LOUISVILLE/SDF NOT AVBL
LOUISVILLE/LOU SUNNY     36  14  40 SW10      30.35S WCI  28
FORT KNOX      SUNNY     34  15  45 W12G23    30.34R WCI  26
$$

KYZ035>037-039>044-047>052-055>060-089>105-082100-
NORTHEAST KENTUCKY

CITY           SKY/WX    TMP DP  RH WIND       PRES   REMARKS
LEXINGTON      NOT AVBL
COVINGTON      MOSUNNY   32  16  51 W18G26    30.29R WCI  20
FRANKFORT      SUNNY     35  13  40 W13G21    30.31R WCI  26
$$

KYZ054-064>069-076>088-106>120-082100-
SOUTHEAST KENTUCKY

CITY           SKY/WX    TMP DP  RH WIND       PRES   REMARKS
JACKSON        SUNNY     35  18  49 W14G21    30.25R WCI  26
LONDON         SUNNY     36  17  46 NW13      30.29R WCI  27
SOMERSET       NOT AVBL
MIDDLESBORO    NOT AVBL
MONTICELLO     NOT AVBL
$$





USA.gov is the U.S. government's official web portal to all federal, state and local government web resources and services.